User: anonymous   Login
Location: State Camp
(41.2367°N, 77.7828°W)
Time: 00:10:54
(UTC-04:00)
Language:

Cosmos 1674 Rocket - Orbit

View from above orbital plane
View from above orbital plane
View from above satellite
View from above satellite

Ground track
Ground track

The orbit data is extracted from the following two-line orbital elements,

1 15945U 85069B   15148.00178917  .00000225  00000-0  24348-4 0  9998
2 15945 082.5266 116.4207 0018437 238.6594 121.2817 14.83699914609636
Epoch (UTC): 28 May 2015 00:02:34
Eccentricity: 0.0018437
inclination: 82.5266°
perigee height: 605 km
apogee height: 630 km
right ascension of ascending node: 116.4207°
argument of perigee: 238.6594°
revolutions per day: 14.83699914
mean anomaly at epoch: 121.2817°
orbit number at epoch: 60963

The dashed part of the orbit path shows where the satellite is in the earth's shadow,  

DLR